Find Starlink 38065

NORAD ID: 69982 Int'l Des: 2026-159 Owner: SPXS Country: US Constellation: starlink operational
LEOCIRCULARRETROGRADE

当前视图

正在加载3D地球...

About Starlink 38065

Starlink 38065 (NORAD 69982) is a starlink constellation satellite (v2 mini) launched Jul 11, 2026 by SPXS of US. It operates in LEO, CIRCULAR, RETROGRADE orbit with a mass of 575.00 kg.

即将过境

Passes for default location (London). Set your location on the main map for personalized predictions.

高度历史

Loading altitude history...

两行轨道根数

1 69982U 26159H 26237.45687006 .00198213 00000-0 12954-2 0 9990
2 69982 97.2832 78.2385 0001790 92.4979 267.6491 15.75256445 8363
Epoch: Aug 25, 2026 • Age: 10 hours

当前状态

高度 350.6 km
远地点 / 近地点 N/A
速度 7.70 km/s
星下点 50.03°N, 16.63°W
发射日期 Jul 11, 2026
运行时间 0.1 years
类型 internet

技术详情

分类 Payload
质量 575.00 kg
干质量 530.00 kg
总质量 575.00 kg
长度 0.30 m
直径 4.10 m
跨度 29.00 m
形状 Box + pan
制造商 SPXS
平台类型 Starlink V2MO
阶段状态 In Orbit
所有者/国家 SPXS/US

Most Searched